Regional Weather Roundup
Issued by NWS

Home | Current Version | Previous Version | Graphics & Text | Print | Product List | Glossary On
Versions: 1 2 3 4 5 6 7 8 9 10 11 12 13 14 15 16 17 18 19 20 21 22 23 24 25 26 27
000
ASUS45 KBOU 230507
RWRCO

WEATHER ROUNDUP FOR COLORADO
NATIONAL WEATHER SERVICE DENVER/BOULDER CO
1100 PM MDT TUE AUG 22 2017

NOTE: "FAIR" INDICATES FEW OR NO CLOUDS BELOW 12000 FEET WITH NO
SIGNIFICANT WEATHER AND/OR OBSTRUCTIONS TO VISIBILITY.

COZ001>005-013-030-031-230600-
...NORTHWEST COLORADO...

CITY           SKY/WX    TMP DP  RH WIND       PRES   REMARKS
CRAIG          FAIR      59  42  53 CALM      30.31R
HAYDEN         FAIR      64  40  41 NE5       30.35R
MEEKER         FAIR      60  45  57 CALM      30.33S
RABBIT EARS PA CLOUDY    54  36  50 W8        30.63S
STEAMBOAT SPGS FAIR      63  42  47 E6        30.36S
WALDEN         FAIR      55  36  47 SE7       30.44S
$$

COZ006>008-011-230600-
...WEST CENTRAL VALLEYS...

CITY           SKY/WX    TMP DP  RH WIND       PRES   REMARKS
GRAND JUNCTION FAIR      70  49  47 NE6       30.21F
MONTROSE       FAIR      63  48  58 S3        30.32S
EAGLE          FAIR      62  41  46 E7        30.38S
RIFLE          FAIR      69  45  41 S6        30.29R
DELTA          FAIR      71  43  36 NE7       30.28S
NUCLA          FAIR      66  46  48 NE3       30.35S
$$

COZ017>023-064>068-230600-
...SOUTHWEST COLORADO...

CITY           SKY/WX    TMP DP  RH WIND       PRES   REMARKS
DURANGO        MOCLDY    65  43  44 NE8       30.37R
CORTEZ         FAIR      58  52  80 SE6       30.29R
PAGOSA SPRINGS FAIR      57  46  67 NW5       30.47S
TELLURIDE      FAIR      52  46  79 SE6       30.56F
WOLF CREEK PAS LGT RAIN  41  37  87 NE3       30.78F
$$

COZ009-010-012-014-032>034-037-058>063-230600-
...CENTRAL COLORADO...

CITY           SKY/WX    TMP DP  RH WIND       PRES   REMARKS
ASPEN          FAIR      54  43  66 S6        30.45F
BUENA VISTA    FAIR      54  46  72 CALM      30.52F
COPPER MTN     FAIR      52  36  54 S15       30.75S
BERTHOUD PASS  FAIR      41  36  81 W9        30.77S
COTTONWOOD PAS FAIR      54  39  58 W6        30.64F
GUNNISON       FAIR      57  46  66 N9        30.48S
KREMMLING      FAIR      66  41  39 S7        30.42R
LEADVILLE      CLOUDY    49  40  71 CALM      30.61S
SALIDA         FAIR      60  48  62 CALM      30.56F
SUNLIGHT       FAIR      46  34  61 SE6       30.68S
WILKERSON PASS CLOUDY    43  37  81 S15G24    30.74F
$$

COZ069>075-230600-
...SAN LUIS VALLEY/SANGRE DE CRISTO MOUNTAINS...

CITY           SKY/WX    TMP DP  RH WIND       PRES   REMARKS
ALAMOSA        FAIR      51  50  96 E5        30.48R
DEL NORTE      FAIR      53  47  81 W16       30.52S
LA VETA PASS   NOT AVBL
SAGUACHE         N/A    N/A N/A N/A MISG        N/A
$$

COZ035-036-038>040-230600-
...NORTHERN COLORADO FRONT RANGE...

CITY           SKY/WX    TMP DP  RH WIND       PRES   REMARKS
DENVER INTL AP MOCLDY    70  46  42 S14       30.21S
DMNS CITY PARK   N/A     73  42  32 SE7       30.20F
AURORA         MOCLDY    70  45  41 S17       30.24S
FRONT RANGE AP FAIR      70  52  52 S16G23    30.24S
ERIE MUNI ARPT FAIR      69  46  43 S3        30.24R
BOULDER MUN AP FAIR      73  41  31 W9        30.18S
CENTENNIAL     MOCLDY    71  41  33 SW14      30.25F
BROOMFIELD     FAIR      72  39  30 NE5       30.23R
FORT COLLINS   FAIR      68  60  75 NE7       30.18F
LONGMONT       FAIR      70  47  44 NE3       30.20R
$$

COZ041-046-047-076>085-087-088-230600-
...PIKES PEAK/PALMER DIVIDE AND SOUTHERN FOOTHILLS...

CITY           SKY/WX    TMP DP  RH WIND       PRES   REMARKS
COLO. SPRINGS  MOCLDY    62  53  72 E6        30.35F
A. F. ACADEMY  FAIR      61  53  74 SE3       30.36S
SCHRIEVER AFB  MOCLDY    59  50  74 S6        30.36S
CHEYENNE MTN   MOCLDY    63  49  59 NW3       30.33F
ELLICOTT       FAIR     N/A N/A N/A SE8       30.34S
FALCON         FAIR      58  51  76 SW5       30.40S
FORT CARSON    FAIR      62  55  76 S7        30.32S
LIMON          FAIR      59  55  87 SE3       30.30S
MONUMENT HILL  FAIR      57  52  82 S12       30.40S
CANON CITY     CLEAR     70  55  60 W8        30.30F
WALSENBURG     FAIR      59  52  77 SW7       30.35S
TRINIDAD       FAIR      56  51  84 W7        30.35R
$$

COZ042>045-048>051-090-091-230600-
...NORTHEAST COLORADO...

CITY           SKY/WX    TMP DP  RH WIND       PRES   REMARKS
GREELEY ARPT   FAIR      63  59  87 NE5       30.17S
AKRON          FAIR      65  51  60 S15       30.23
BURLINGTON     FAIR      60  56  86 SE10      30.26S
WRAY           FAIR      63  54  72 SE12      30.23R
YUMA           FAIR      61  45  55 S8        30.22S
STERLING       FAIR      68  54  60 S16G22    30.16F
HOLYOKE        FAIR      63  54  72 S10       30.21S
FORT MORGAN    FAIR      64  53  67 SE8       30.19F
$$

COZ086-089-092>099-230600-
...SOUTHEAST COLORADO...

CITY           SKY/WX    TMP DP  RH WIND       PRES   REMARKS
PUEBLO         FAIR      65  50  58 CALM      30.27R
LA JUNTA       FAIR      67  58  72 S3        30.26R
LAMAR          FAIR      63  56  78 S8        30.23R
SPRINGFIELD      N/A     61  60  97 S5        30.29R
$$




USA.gov is the U.S. government's official web portal to all federal, state and local government web resources and services.